Regional Weather Roundup
Issued by NWS Sioux Falls, SD

Home | Current Version | Previous Version | Graphics & Text | Print | Product List | Glossary On
Versions: 1 2 3 4 5 6 7 8 9 10 11 12 13 14 15 16 17 18 19 20 21 22 23 24 25 26 27 28 29 30 31 32 33 34 35 36 37 38 39 40 41 42 43 44 45 46 47 48 49 50
000
ASUS43 KFSD 050210
RWRFSD

WEATHER ROUNDUP FOR SE SOUTH DAKOTA/SW MINNESOTA/NW IOWA
NATIONAL WEATHER SERVICE SIOUX FALLS SD
900 PM CDT FRI SEP 04 2015

NOTE: "FAIR" INDICATES FEW OR NO CLOUDS BELOW 12,000 FEET WITH NO
SIGNIFICANT WEATHER AND OR OBSTRUCTIONS TO VISIBILITY.


SDZ038>040-050-052>070-050300-
SOUTHEAST SOUTH DAKOTA

CITY           SKY/WX    TMP DP  RH WIND       PRES   REMARKS
BROOKINGS      MOCLDY    75  70  83 SE15      29.89R
CHAMBERLAIN    MOCLDY    78  70  77 SE7       29.76S
HURON          MOCLDY    79  72  79 SE12      29.77S
MADISON        FAIR      75  75 100 SE9       29.86R
MITCHELL       CLOUDY    80  74  81 SE12      29.79R
SIOUX FALLS    PTCLDY    78  71  79 SE14      29.85R
WINNER         FAIR      83  63  50 SE8       29.77R
YANKTON        CLEAR     81  72  74 SE12      29.81R
$$

MNZ071-072-080-081-089-090-097-098-050300-
SOUTHWEST MINNESOTA

CITY           SKY/WX    TMP DP  RH WIND       PRES   REMARKS
FAIRMONT       CLOUDY    77  68  73 SE10      29.94R
JACKSON        PTCLDY    77  73  88 SE8       29.95R
LUVERNE        PTCLDY    77  72  83 SE7       29.89R
MARSHALL       PTCLDY    75  66  73 S13       29.89R
MONTEVIDEO     PTCLDY    75  70  83 S9        29.88R
PIPESTONE      PTCLDY    75  72  88 SE10      29.90R
REDWOOD FALLS  MOCLDY    76  70  82 S13       29.89R
TRACY          PTCLDY    75  72  88 S7        29.90R
WINDOM         PTCLDY    75  72  88 SE6       29.93R
WORTHINGTON    PTCLDY    75  70  83 SE8       29.92R
$$

IAZ001>003-012>014-020>022-031-032-NEZ013-014-SDZ071-050300-
NORTHWEST IOWA

CITY           SKY/WX    TMP DP  RH WIND       PRES   REMARKS
CHEROKEE       PTCLDY    77  72  86 SE9       29.91R
DENISON        PTCLDY    79  72  78 SE14      29.90R
ESTHERVILLE    MOCLDY    76  73  91 SE9       29.94R
LE MARS        PTCLDY    79  73  83 SE14      29.88R
ORANGE CITY    PTCLDY    77  73  88 SE7       29.89S
SHELDON        PTCLDY    75  72  88 SE12      29.89R
SIOUX CITY     PTCLDY    78  71  79 SE12      29.86R
SPENCER        PTCLDY    79  71  76 SE12      29.93R
STORM LAKE     MOCLDY    77  72  83 SE8G14    29.94S
$$

ABBREVIATIONS USED IN REMARKS
   TC - TEMPERATURE IN CELSIUS
  WCI - WIND CHILL INDEX
   HX - HEAT INDEX
  VSB - VISIBILITY



USA.gov is the U.S. government's official web portal to all federal, state and local government web resources and services.